#timestamp,LO_Frequency,Hit,StdDev 
1581656415.4,286047000.3,N
1581656435.3,286046998.2,N
1581656455.1,286047000.8,N
1581656475.8,286046998.5,N
1581656495.7,286046998.5,N
1581656515.5,286047000.5,N
1581656535.4,286046999.8,N
1581656555.2,286046998.6,N
1581656575.0,286047000.8,N
1581656575.9,286047000.8,N
1581656595.8,286047002.6,N
1581656615.6,286046998.1,N
1581656635.4,286047000.6,N
1581656655.3,286047000.4,N
1581656675.1,286046998.4,N
1581656695.9,286046999.5,N
1581656715.7,286046998.9,N
1581656735.5,286046998.1,N
1581656755.4,286046998.7,N
1581656775.2,286046997.1,N
1581656795.0,286046995.7,N
1581656795.9,286046995.7,N
1581656815.8,286046997.9,N
1581656835.6,286046996.9,N
1581656855.5,286047000.0,N
1581656875.3,286046999.9,N
1581656895.1,286047000.8,N
1581656915.9,286046998.6,N
1581656935.7,286046998.2,N
1581656955.6,286046998.9,N
1581656975.4,286046998.6,N
1581656995.2,286046998.5,N
1581657015.1,286047000.7,N
1581657016.0,286047000.7,N
1581657035.8,286047001.1,N
1581657055.6,286046999.9,N
1581657075.5,286046998.5,N
1581657095.3,286047001.0,N
1581657115.2,286047002.6,N
1581657135.9,286047000.6,N
1581657155.7,286047001.2,N
1581657175.6,286046999.0,N
1581657195.4,286046999.5,N
1581657215.2,286047000.8,N
1581657235.1,286046999.8,N
1581657236.0,286046999.8,N
1581657255.8,286046998.4,N
1581657275.7,286046999.1,N
1581657295.5,286046998.3,N
1581657315.3,286046999.3,N
1581657335.2,286046998.5,N
1581657355.0,286046997.5,N
1581657355.9,286046997.5,N
1581657375.8,286046997.6,N
1581657395.6,286046995.7,Y
1581657415.4,286046998.9,P
1581657435.3,286046999.5,N
1581657455.1,286046999.6,N
1581657475.8,286047000.7,N
1581657495.7,286046999.4,N
1581657515.5,286047000.7,N
1581657535.4,286047002.0,Y
1581657555.2,286047001.5,P
1581657575.0,286047002.5,N
1581657575.9,286047002.5,N
1581657595.8,286047000.1,N
1581657615.6,286047003.9,Y
1581657635.5,286047000.8,P
1581657655.3,286047000.4,N
1581657675.1,286046998.7,P
1581657695.9,286046997.2,N
1581657715.7,286046999.3,N
1581657735.6,286046999.1,N
1581657755.4,286047000.4,N
1581657775.2,286047000.1,N
1581657795.1,286047001.1,N
1581657796.0,286047001.1,N
1581657815.8,286047000.9,N
1581657835.6,286047000.8,N
1581657855.5,286047000.7,N
1581657875.3,286047002.4,N
1581657895.2,286047001.7,N
1581657915.9,286047003.9,Y
1581657935.7,286047002.4,P
1581657955.6,286047002.6,N
1581657975.4,286047001.2,N
1581657995.2,286046998.9,N
1581658015.1,286046999.5,N
1581658016.0,286046999.5,N
1581658035.8,286046998.1,N
1581658055.7,286047000.6,N
1581658075.5,286047000.0,N
1581658095.3,286046999.8,N
1581658115.2,286047000.6,N
1581658135.0,286046998.9,N
1581658135.9,286046998.9,N
1581658155.8,286046999.1,N
1581658175.6,286046998.2,N
1581658195.4,286046998.9,N
1581658215.3,286046999.5,N
1581658235.1,286046999.4,N
1581658255.8,286047001.2,N
1581658275.7,286046998.2,N
1581658295.5,286046997.0,N
1581658315.4,286046997.8,N
1581658335.2,286046995.9,Y
1581658355.0,286046996.5,P
1581658355.9,286046996.5,N
1581658375.8,286046997.7,N
1581658395.6,286046997.8,N
1581658415.4,286046995.1,Y
1581658435.3,286046996.7,P
1581658455.1,286046998.7,N
1581658475.9,286046998.4,N
1581658495.7,286047000.7,N
1581658515.5,286046999.8,N
1581658535.4,286047000.8,N
1581658555.2,286046998.3,N
1581658575.1,286046998.4,N
1581658576.0,286046998.4,N
1581658595.8,286046999.7,N
1581658615.6,286047002.0,N
1581658635.5,286047004.3,N
1581658655.3,286047003.7,N
1581658675.1,286047005.3,N
1581658695.9,286047003.7,N
1581658715.7,286047001.8,N
1581658735.6,286047002.8,N
1581658755.4,286047002.4,N
1581658775.2,286047003.1,N
1581658795.1,286047005.6,N
1581658796.0,286047005.6,N
1581658815.8,286047003.6,N
1581658835.7,286047004.3,N
1581658855.5,286047004.3,N
1581658875.3,286047005.5,N
1581658895.2,286047004.9,N
1581658915.0,286047004.0,N
1581658915.9,286047004.0,N
1581658935.8,286047002.1,N
1581658955.6,286047001.6,N
1581658975.4,286047001.9,N
1581658995.3,286047006.0,N
1581659015.1,286047005.4,N
1581659035.8,286047005.0,N
1581659055.7,286047005.4,N
1581659075.5,286047001.7,N
1581659095.4,286047001.4,N
1581659115.2,286047001.9,N
1581659135.0,286047002.2,N
1581659135.9,286047002.2,N
1581659155.8,286047004.4,N
1581659175.6,286047002.0,N
1581659195.4,286047002.0,N
1581659215.3,286047000.2,N
1581659235.1,286047002.5,N
1581659255.9,286047002.3,N
1581659275.7,286047000.2,N
1581659295.5,286047001.4,N
1581659315.4,286047004.3,N
1581659335.2,286047003.9,N
1581659355.0,286047003.2,N
1581659355.9,286047003.2,N
1581659375.8,286047003.5,N
1581659395.6,286047003.0,N
1581659415.5,286047003.5,N
1581659435.3,286047002.1,N
1581659455.1,286047004.3,N
1581659475.9,286047003.9,N
1581659495.7,286047002.3,N
1581659515.5,286047001.7,N
1581659535.4,286046999.9,N
1581659555.2,286047001.3,N
1581659575.1,286047001.7,N
1581659576.0,286047001.7,N
1581659595.8,286047000.0,N
1581659615.6,286047004.3,Y
1581659635.5,286047002.5,P
1581659655.3,286046999.9,N
1581659675.2,286047003.7,P
1581659695.9,286047001.4,N
1581659715.7,286047002.1,N
1581659735.6,286047001.9,N
1581659755.4,286047004.0,Y
1581659775.3,286047002.6,P
1581659795.1,286046998.5,P
1581659796.0,286046998.5,N
1581659815.8,286046998.7,N
1581659835.7,286046999.3,N
1581659855.5,286046999.3,N
1581659875.3,286046998.6,N
1581659895.2,286046998.8,N
1581659915.0,286047001.2,N
1581659915.9,286047001.2,N
1581659935.8,286047000.6,N
1581659955.6,286047000.7,N
1581659975.4,286047000.0,N
1581659995.3,286047001.9,N
